Content
SEND FEEDBACK

Daily
Averages
Monthly
Summary
Japan

NAKANISHI, JAPAN


Home > Asia > Japan
Elevation: 157 feet     Latitude: 26 21N     Longitude: 127 46E

WEATHER
 
SELECT A DAY
Number of Records: 267,872;   Date Range: 7/1/96 - 12/27/14
 
SHARE

PRINT THIS DATA

[ ← Previous Day ]
WEATHER ALMANAC - JANUARY 31, 2013
[ Next Day → ]
[ °C ]   °F
Weather ElementAverageHighLow
Temperature66.9 °F72.7 °F (11:55 am)64.2 °F (12:55 am)
Dewpoint60.5 °F62.6 °F (11:29 am)57.9 °F (8:55 pm)
Humidity80.3 %90 % (12:55 am)66 % (3:55 pm)
Barometer30.27 in30.31 in (9:55 am)30.25 in (2:55 am)
Wind Speed16.1 mph21.9 mph (11:23 am)
Wind Gust29.9 mph (11:55 am)
Weather ElementAverage
Visibility9.7 mi
Wind DirectionESE (105.3 °)

Weather ElementTotal
Precipitation0.02 in
Cooling Degree Days3.5 (Base 65)
Growing Degree Days18.5 (Base 50)
Averaged from 53 records on January 31, 2013
WEATHER CONDITIONS BREAKOUT
WIND DIRECTION BREAKOUT
WEATHER BY HOUR - JANUARY 31, 2013
[ °C ]   °F
Local TimeTemperatureDewpointHumidityBarometerVisibilityWind DirectionWind SpeedGust SpeedPrecipitationEventsConditions
12:12 AM64.4 °F60.8 °F88 %30.27 in10.0 miEast (80°)12.7 mphOvercast
12:24 AM64.4 °F60.8 °F88 %30.27 in10.0 miEast (90°)12.7 mphOvercast
12:29 AM64.4 °F60.8 °F88 %30.27 in10.0 miEast (80°)13.8 mphOvercast
12:47 AM64.4 °F60.8 °F88 %30.27 in10.0 miEast (90°)13.8 mphRainLight Rain
12:49 AM64.4 °F60.8 °F88 %30.27 in10.0 miEast (90°)15.0 mphOvercast
12:55 AM64.2 °F61.2 °F90 %30.27 in10.0 miEast (90°)15.0 mph0.00 inOvercast
1:20 AM64.4 °F60.8 °F88 %30.27 in10.0 miEast (90°)13.8 mphRainLight Rain
1:27 AM64.4 °F60.8 °F88 %30.27 in10.0 miEast (90°)17.3 mph21.9 mphRainLight Rain
1:35 AM64.4 °F60.8 °F88 %30.27 in10.0 miEast (90°)13.8 mphRainLight Rain
1:43 AM64.4 °F60.8 °F88 %30.26 in10.0 miEast (90°)16.1 mph21.9 mphOvercast
1:55 AM64.8 °F60.3 °F85 %30.26 in10.0 miEast (90°)12.7 mph0.00 inMostly Cloudy
2:55 AM65.5 °F59.9 °F82 %30.25 in10.0 miEast (100°)12.7 mphOvercast
3:03 AM66.2 °F60.8 °F83 %30.25 in10.0 miEast (100°)15.0 mphRainLight Rain
3:19 AM64.4 °F60.8 °F88 %30.25 in8.0 miEast (100°)13.8 mph20.7 mphRainLight Rain
3:21 AM64.4 °F60.8 °F88 %30.25 in7.0 miEast (100°)10.4 mph20.7 mphRainLight Rain
3:30 AM64.4 °F60.8 °F88 %30.25 in10.0 miEast (100°)15.0 mph21.9 mphOvercast
3:55 AM65.3 °F60.4 °F84 %30.25 in10.0 miEast (90°)17.3 mph0.00 inOvercast
3:57 AM66.2 °F60.8 °F83 %30.25 in10.0 miEast (90°)13.8 mphOvercast
3:58 AM66.2 °F60.8 °F83 %30.25 in10.0 miEast (90°)13.8 mphRainLight Rain
3:59 AM66.2 °F60.8 °F83 %30.25 in10.0 miEast (90°)16.1 mphRainLight Rain
4:00 AM66.2 °F60.8 °F83 %30.25 in10.0 miEast (90°)16.1 mphRainLight Rain
4:01 AM66.2 °F60.8 °F83 %30.25 in10.0 miEast (90°)15.0 mphRainLight Rain
4:08 AM66.2 °F60.8 °F83 %30.25 in10.0 miEast (100°)15.0 mph23.0 mphOvercast
4:13 AM66.2 °F60.8 °F83 %30.25 in10.0 miEast (90°)15.0 mph23.0 mphOvercast
4:23 AM66.2 °F60.8 °F83 %30.25 in10.0 miEast (90°)12.7 mphOvercast
4:49 AM66.2 °F60.8 °F83 %30.25 in9.0 miEast (100°)16.1 mphRainLight Rain
4:55 AM65.1 °F60.4 °F85 %30.25 in6.0 miESE (120°)18.4 mph24.2 mph0.01 inRainLight Rain
4:57 AM64.4 °F60.8 °F88 %30.25 in6.0 miEast (100°)17.3 mph24.2 mphRainLight Rain
4:58 AM64.4 °F60.8 °F88 %30.25 in6.0 miEast (100°)17.3 mph24.2 mphRainLight Rain
5:07 AM64.4 °F60.8 °F88 %30.25 in10.0 miEast (100°)15.0 mph24.2 mphMostly Cloudy
5:55 AM65.1 °F61.0 °F86 %30.26 in10.0 miEast (100°)11.5 mph0.01 inOvercast
6:55 AM66.2 °F59.9 °F80 %30.27 in10.0 miESE (110°)15.0 mph21.9 mphOvercast
7:55 AM66.6 °F60.1 °F80 %30.28 in10.0 miEast (100°)13.8 mph21.9 mphOvercast
8:55 AM67.6 °F61.0 °F79 %30.30 in10.0 miESE (110°)13.8 mph24.2 mphOvercast
9:55 AM69.3 °F62.1 °F78 %30.31 in10.0 miESE (110°)17.3 mph23.0 mphOvercast
10:55 AM70.3 °F62.1 °F75 %30.30 in10.0 miEast (100°)16.1 mph27.6 mphMostly Cloudy
11:23 AM69.8 °F60.8 °F73 %30.30 in10.0 miESE (120°)21.9 mph27.6 mphOvercast
11:29 AM71.6 °F62.6 °F73 %30.30 in10.0 miESE (120°)17.3 mph26.5 mphOvercast
11:40 AM71.6 °F60.8 °F69 %30.30 in10.0 miESE (120°)18.4 mph26.5 mphOvercast
11:42 AM71.6 °F62.6 °F73 %30.30 in10.0 miESE (120°)19.6 mph26.5 mphOvercast
11:55 AM72.7 °F61.9 °F69 %30.30 in10.0 miSE (130°)19.6 mph29.9 mphMostly Cloudy
12:55 PM70.9 °F59.7 °F68 %30.27 in10.0 miSE (130°)20.7 mph28.8 mphOvercast
1:55 PM71.1 °F60.1 °F68 %30.25 in10.0 miSE (130°)19.6 mph28.8 mphOvercast
2:55 PM70.2 °F60.1 °F70 %30.25 in10.0 miESE (120°)20.7 mph26.5 mphOvercast
3:55 PM71.6 °F59.9 °F66 %30.25 in10.0 miESE (120°)17.3 mph26.5 mphOvercast
4:55 PM70.0 °F59.4 °F69 %30.25 in10.0 miESE (120°)17.3 mph24.2 mphMostly Cloudy
5:55 PM68.5 °F59.5 °F73 %30.27 in10.0 miSE (140°)13.8 mphClear
6:55 PM68.5 °F60.3 °F75 %30.27 in10.0 miSE (130°)20.7 mphMostly Cloudy
7:55 PM68.2 °F58.8 °F72 %30.27 in10.0 miSE (130°)16.1 mph26.5 mphOvercast
8:55 PM68.0 °F57.9 °F70 %30.28 in10.0 miESE (120°)20.7 mph26.5 mphMostly Cloudy
9:55 PM68.2 °F58.8 °F72 %30.29 in10.0 miSE (130°)20.7 mph28.8 mphOvercast
10:55 PM67.8 °F58.6 °F72 %30.27 in10.0 miSE (130°)20.7 mph28.8 mphPartly Cloudy
11:55 PM67.5 °F57.9 °F71 %30.27 in10.0 miSE (130°)18.4 mph26.5 mphPartly Cloudy
Hourly data recorded from RODN, located miles away from Nakanishi, Japan







STORIES FROM OUR PARTNERS